Location: Newark
(4.9000°N, 36.4333°E)
Time: 08:50:40
(UTC+00:00)

Envisat - Visible Passes

Search period start: 24 July 2019 00:00
Search period end: 03 August 2019 00:00
Orbit: 764 x 766 km, 98.1° (Epoch: 24 July)

Date Brightness Start Highest point End Pass type
(mag) Time Alt. Az. Time Alt. Az. Time Alt. Az.
24 Jul 4.4 16:46:14 10° S 16:50:57 39° WSW 16:55:39 10° NNW visible
25 Jul 3.0 16:09:13 10° SSE 16:14:17 72° ENE 16:19:19 10° N visible
26 Jul 5.5 17:12:52 10° SW 17:16:24 19° WSW 17:19:56 10° WNW visible
27 Jul 3.8 16:34:47 10° S 16:39:44 54° WSW 16:44:40 10° NNW visible
29 Jul 5.1 17:01:01 10° SSW 17:05:11 26° WSW 17:09:21 10° NW visible
30 Jul 3.2 16:23:27 10° S 16:28:30 74° WSW 16:33:33 10° NNW visible
31 Jul 5.9 17:28:43 10° SW 17:30:38 12° W 17:32:35 10° WNW visible
01 Aug 4.6 16:49:22 10° SSW 16:53:57 35° WSW 16:58:32 10° NW visible
02 Aug 3.0 16:12:13 10° SSE 16:17:17 81° ENE 16:22:21 10° N visible
